Back to catalog

STARLINK-36494

AliveCommunicationsVLEO
NORAD 67331·PAYLOAD·🇺🇸 United States

Launched Jan 4, 2026 from Cape Canaveral Space Force Station

Loading…

Next Passes (next 24 hours)

TLE

FreshSource: CelesTrak SupGP

Epoch: Sep 14, 2026, 14:21 UTC

1 67331C 26002AC  26257.59840278  .00000258  00000+0  93469-5 0  2572
2 67331  43.0038 338.4420 0001684 279.4171 297.8946 15.27571282    10

Track STARLINK-36494 in real time with AllMySat

Download on the App Store